Weather History for Wichita, KS

Change the Weather History Date:

Monday, October 3, 2011

  Actual Average Record
Temperature  
Mean Temperature 73 °F 63 °F  
Max Temperature 90 °F 75 °F 96 °F (2006)
Min Temperature 55 °F 52 °F 37 °F (1975)
Degree Days  
Heating Degree Days 0 4  
Month to date heating degree days 4 12  
Since 1 July heating degree days 35 55  
Cooling Degree Days 8 3  
Month to date cooling degree days 9 9  
Year to date cooling degree days 2264 1658  
Growing Degree Days 22 (Base 50)    
Moisture  
Dew Point 42 °F    
Average Humidity 40    
Maximum Humidity 61    
Minimum Humidity 19    
Precipitation  
Precipitation 0.00 in 0.10 in 2.73 in (2002)
Month to date precipitation 0.00 0.32  
Year to date precipitation 17.22 27.55  
Snow  
Snow 0.00 in 0.00 in 0.00 in (2007)
Month to date snowfall 0.0 0.0  
Since 1 July snowfall 0.0 0.0  
Since 1 September snowfall 0.0 0.0  
Snow Depth 0.00 in    
Sea Level Pressure  
Sea Level Pressure 30.10 in    
Wind  
Wind Speed 14 mph (SSE)    
Max Wind Speed 25 mph    
Max Gust Speed 32 mph    
Visibility 10 miles    
Events      
T = Trace of Precipitation, MM = Missing Value Source: NWS Daily Summary

Daily Weather History Graph

Daily Weather History Graph

Search for Another Location

Airport:

Trip Planner

Search our weather history database for the weather conditions in past years. The results will help you decide how hot, cold, wet, or windy it might be!

Date:

Astronomy

Oct. 03, 2011 Rise Set
Actual Time 7:26 AM CDT 7:10 PM CDT
Civil Twilight 7:00 AM CDT 7:36 PM CDT
Nautical Twilight 6:30 AM CDT 8:06 PM CDT
Astronomical Twilight 5:59 AM CDT 8:37 PM CDT
Moon 2:19 PM CDT (10/3) No Moon Set
Length of Visible Light 12h 35m
Length of Day
11h 43m
Waxing Crescent, 45% of the Moon is Illuminated
Oct 3
Waxing Crescent
Oct 3
First Quarter
Oct 11
Full
Oct 19
Last Quarter
Oct 26
New

Hourly Weather History & Observations

Time (CDT) Temp. Dew Point Humidity Pressure Visibility Wind Dir Wind Speed Gust Speed Precip Events Conditions
12:53 AM 64.0 °F 44.1 °F 48% 30.11 in 10.0 mi SSE 13.8 mph - N/A   Clear
1:53 AM 62.6 °F 42.8 °F 48% 30.15 in 10.0 mi SSE 9.2 mph - N/A   Clear
2:53 AM 59.0 °F 42.1 °F 53% 30.13 in 10.0 mi SE 8.1 mph - N/A   Clear
3:53 AM 57.9 °F 43.0 °F 58% 30.12 in 10.0 mi SSE 6.9 mph - N/A   Clear
4:53 AM 55.9 °F 43.0 °F 62% 30.13 in 10.0 mi SSE 8.1 mph - N/A   Clear
5:53 AM 55.4 °F 42.8 °F 63% 30.16 in 10.0 mi SSE 8.1 mph - N/A   Clear
6:53 AM 55.9 °F 42.1 °F 60% 30.14 in 10.0 mi South 10.4 mph - N/A   Partly Cloudy
7:53 AM 57.0 °F 41.0 °F 55% 30.14 in 10.0 mi SSE 10.4 mph - N/A   Partly Cloudy
8:53 AM 63.0 °F 39.9 °F 43% 30.14 in 10.0 mi SSE 15.0 mph - N/A   Clear
9:53 AM 71.1 °F 37.9 °F 30% 30.13 in 10.0 mi South 23.0 mph 28.8 mph N/A   Clear
10:53 AM 75.9 °F 37.9 °F 25% 30.13 in 10.0 mi South 21.9 mph - N/A   Clear
11:53 AM 80.1 °F 39.0 °F 23% 30.12 in 10.0 mi South 19.6 mph 25.3 mph N/A   Clear
12:53 PM 84.2 °F 41.0 °F 22% 30.13 in 10.0 mi South 17.3 mph 26.5 mph N/A   Clear
1:53 PM 86.0 °F 41.0 °F 20% 30.08 in 10.0 mi South 20.7 mph 26.5 mph N/A   Clear
2:53 PM 88.0 °F 43.0 °F 21% 30.05 in 10.0 mi South 19.6 mph 27.6 mph N/A   Clear
3:53 PM 89.1 °F 43.0 °F 20% 30.05 in 10.0 mi South 16.1 mph 24.2 mph N/A   Clear
4:53 PM 89.1 °F 44.1 °F 21% 30.04 in 10.0 mi South 18.4 mph 25.3 mph N/A   Clear
5:53 PM 87.1 °F 45.0 °F 23% 30.04 in 10.0 mi South 19.6 mph - N/A   Clear
6:53 PM 82.0 °F 44.1 °F 26% 30.05 in 10.0 mi SSE 13.8 mph - N/A   Clear
7:53 PM 78.8 °F 42.8 °F 28% 30.08 in 10.0 mi SSE 12.7 mph - N/A   Clear
8:53 PM 75.0 °F 43.0 °F 32% 30.07 in 10.0 mi SSE 13.8 mph - N/A   Clear
9:53 PM 73.0 °F 43.0 °F 34% 30.08 in 10.0 mi SSE 15.0 mph - N/A   Clear
10:53 PM 69.1 °F 43.0 °F 39% 30.08 in 10.0 mi SSE 11.5 mph - N/A   Clear
11:53 PM 66.9 °F 42.1 °F 40% 30.09 in 10.0 mi SSE 10.4 mph - N/A   Clear